TimeMDT,TemperatureF,Dew PointF,Humidity,Sea Level PressureIn,VisibilityMPH,Wind Direction,Wind SpeedMPH,Gust SpeedMPH,PrecipitationIn,Events,Conditions,WindDirDegrees,DateUTC
12:53 AM,61.0,54.0,78,30.01,10.0,South,5.8,-,N/A,,Clear,190,2013-07-30 06:53:00
1:53 AM,61.0,53.1,75,30.00,10.0,South,13.8,-,N/A,,Clear,190,2013-07-30 07:53:00
2:53 AM,59.0,53.1,81,29.99,10.0,SSW,12.7,-,N/A,,Clear,210,2013-07-30 08:53:00
3:53 AM,61.0,51.1,70,29.96,10.0,SSW,12.7,-,N/A,,Clear,210,2013-07-30 09:53:00
4:53 AM,60.1,52.0,75,29.99,10.0,SSW,11.5,-,N/A,,Clear,200,2013-07-30 10:53:00
5:53 AM,55.9,51.1,84,30.00,10.0,South,10.4,-,N/A,,Clear,170,2013-07-30 11:53:00
6:53 AM,59.0,51.1,75,30.00,10.0,South,12.7,-,N/A,,Clear,170,2013-07-30 12:53:00
7:53 AM,66.0,52.0,60,29.99,10.0,South,12.7,-,N/A,,Clear,190,2013-07-30 13:53:00
8:53 AM,70.0,54.0,57,29.99,10.0,SSW,9.2,-,N/A,,Clear,210,2013-07-30 14:53:00
9:53 AM,72.0,53.1,51,30.03,10.0,NW,12.7,-,N/A,,Clear,310,2013-07-30 15:53:00
10:53 AM,73.9,54.0,50,30.04,10.0,NNW,10.4,-,N/A,,Clear,340,2013-07-30 16:53:00
11:53 AM,-9999,-9999,N/A,30.16,-9999.0,North,-9999.0,-,N/A,,Unknown,0,2013-07-30 17:53:00
12:53 PM,79.0,50.0,36,30.03,10.0,NNW,10.4,20.7,N/A,,Clear,340,2013-07-30 18:53:00
1:53 PM,80.1,48.9,34,30.02,10.0,North,9.2,19.6,N/A,,Clear,360,2013-07-30 19:53:00
2:53 PM,78.1,48.9,36,30.04,10.0,NNW,11.5,-,N/A,,Clear,340,2013-07-30 20:53:00
3:38 PM,77.0,48.2,36,30.17,10.0,NNW,13.8,-,N/A,Thunderstorm,Scattered Clouds,340,2013-07-30 21:38:00
3:53 PM,75.9,48.0,37,30.07,10.0,WNW,11.5,-,N/A,Thunderstorm,Thunderstorm,300,2013-07-30 21:53:00
4:12 PM,73.4,53.6,50,30.17,10.0,South,12.7,18.4,0.00,Rain,Light Rain,170,2013-07-30 22:12:00
4:25 PM,75.2,51.8,44,30.16,10.0,SE,10.4,-,0.00,Thunderstorm,Scattered Clouds,140,2013-07-30 22:25:00
4:40 PM,75.2,50.0,41,30.16,10.0,SSE,10.4,-,0.00,,Clear,160,2013-07-30 22:40:00
4:53 PM,75.9,46.9,36,30.04,10.0,SSE,8.1,-,0.00,,Clear,160,2013-07-30 22:53:00
5:53 PM,80.1,46.0,30,30.04,10.0,Calm,Calm,-,N/A,,Clear,0,2013-07-30 23:53:00
6:53 PM,80.1,46.9,31,30.05,10.0,Calm,Calm,-,N/A,,Mostly Cloudy,0,2013-07-31 00:53:00
7:15 PM,77.0,46.4,34,30.18,10.0,North,9.2,-,N/A,Thunderstorm,Mostly Cloudy,350,2013-07-31 01:15:00
7:30 PM,73.4,48.2,41,30.19,10.0,North,16.1,25.3,N/A,,Mostly Cloudy,10,2013-07-31 01:30:00
7:53 PM,69.1,48.9,49,30.08,10.0,North,16.1,-,N/A,,Scattered Clouds,10,2013-07-31 01:53:00
8:53 PM,61.0,53.1,75,30.13,10.0,NW,5.8,-,N/A,,Partly Cloudy,320,2013-07-31 02:53:00
9:53 PM,61.0,54.0,78,30.16,10.0,West,3.5,-,0.00,,Overcast,270,2013-07-31 03:53:00
10:53 PM,60.1,52.0,75,30.17,10.0,NW,5.8,-,N/A,,Partly Cloudy,320,2013-07-31 04:53:00
11:53 PM,59.0,55.0,87,30.33,10.0,NNE,4.6,-,0.00,,Overcast,20,2013-07-31 05:53:00